{"data":{"norad_id":46705,"intl_designator":"2020-073AM","name":"STARLINK-1805","alt_names":[],"object_type":"PAYLOAD","status":"ACTIVE","operator":null,"country":"US","launch_date":"2020-10-18","launch_site_code":"AFETR","launch_vehicle":null,"mission":null,"orbit_class":"UNKNOWN","rcs_meters":null,"size_class":null,"mass_kg":null,"dimensions":null,"purposes":["comms"],"wikipedia_slug":null,"has_3d_model":false,"image_url":null,"decayed_at":null,"tle_current":{"epoch":"2026-09-14T19:05:15.881280Z","epoch_age_seconds":518554,"freshness":"STALE","line1":"1 46705U 20073AM  26257.79532270  .03590971  12068-4  89629-3 0  9993","line2":"2 46705  53.0233  22.8217 0008854 326.4610  33.5870 16.28220207326882","mean_motion":16.28220207,"eccentricity":0.0008854,"inclination_deg":53.0233,"raan_deg":22.8217,"arg_perigee_deg":326.461,"mean_anomaly_deg":33.587,"bstar":0.00089629,"rev_number":32688,"period_min":88.440125838581,"perigee_km":191.50523699734,"apogee_km":203.1490689194,"semimajor_km":6575.4641529584,"source":"CELESTRAK","updated_at":"2026-09-15T09:00:52.794033Z"}}}